This demonstration page uses our WeatherBlox Daily Observations layout. Learn more.

Left ArrowRight Arrow

Hourly Observations for January 29, 2015

Temp ( °F °C ) Dew Point ( °F °C ) Humidity (%) Winds ( mph kmh ) Pressure ( in mb ) Visibility ( mi km ) Precip ( " mm )
12:51 am 00:51 Clear 52 11.1 36 2.2 55 55 N N/A 30.04 1017 10 16 N/A
1:51 am 01:51 Clear 50 10 36 2.2 59 59 ESE 3 6 30.06 1018 10 16 N/A
2:51 am 02:51 Clear 50 10 36 2.2 59 59 SE 6 9 30.06 1018 10 16 N/A
3:51 am 03:51 Clear 50 10 36 2.2 59 59 SSE 6 9 30.04 1017 10 16 N/A
4:51 am 04:51 Clear 49 9.4 36 2.2 61 61 ESE 5 7 30.04 1017 10 16 N/A
5:51 am 05:51 Clear 51 10.6 37 2.8 59 59 SE 13 20 30.06 1018 10 16 N/A
6:51 am 06:51 Clear 53 11.7 36 2.2 52 52 SE 9 15 30.07 1018 10 16 N/A
7:51 am 07:51 Sunny 54 12.2 36 2.2 51 51 SE 15 24 30.09 1019 10 16 N/A
8:51 am 08:51 Sunny 53 11.7 36 2.2 52 52 SSE 13 20 30.12 1020 10 16 N/A
9:51 am 09:51 Sunny 56 13.3 35 1.7 46 46 SE 13 20 30.14 1021 10 16 N/A
10:51 am 10:51 Partly Cloudy 59 15 36 2.2 42 42 ESE 10 17 30.14 1021 10 16 N/A
11:51 am 11:51 Cloudy 60 15.6 36 2.2 41 41 SSE 9 15 30.12 1020 10 16 N/A
12:51 pm 12:51 Cloudy 61 16.1 35 1.7 38 38 SSE 8 13 30.08 1019 10 16 N/A
1:51 pm 13:51 Cloudy with Light Rain 60 15.6 42 5.6 52 52 SSE 5 7 30.07 1018 10 16 N/A
2:51 pm 14:51 Cloudy with Light Rain 61 16.1 43 6.1 52 52 SSE 3 6 30.06 1018 10 16 0.01 0.25
3:51 pm 15:51 Mostly Cloudy 62 16.7 43 6.1 50 50 E 7 11 30.04 1017 10 16 N/A
4:51 pm 16:51 Cloudy 62 16.7 41 5 46 46 E 10 17 30.04 1017 10 16 N/A
5:51 pm 17:51 Mostly Cloudy 63 17.2 38 3.3 40 40 ESE 18 30 30.04 1017 10 16 N/A
6:51 pm 18:51 Cloudy with Light Rain 61 16.1 39 3.9 44 44 ESE 15 24 30.06 1018 10 16 N/A
7:51 pm 19:51 Cloudy with Light Rain 56 13.3 45 7.2 67 67 E 13 20 30.10 1019 10 16 N/A
8:51 pm 20:51 Cloudy 57 13.9 43 6.1 60 60 ESE 14 22 30.11 1020 10 16 N/A
9:51 pm 21:51 Cloudy with Light Rain 54 12.2 45 7.2 72 72 ESE 13 20 30.13 1020 10 16 N/A
10:51 pm 22:51 Cloudy 53 11.7 45 7.2 74 74 E 14 22 30.11 1020 10 16 0.02 0.51
11:51 pm 23:51 Cloudy with Light Rain 52 11.1 45 7.2 77 77 ESE 14 22 30.12 1020 10 16 N/A

Powered by AerisWeather